TimeCAT,TemperatureF,Dew PointF,Humidity,Sea Level PressureIn,VisibilityMPH,Wind Direction,Wind SpeedMPH,Gust SpeedMPH,PrecipitationIn,Events,Conditions,WindDirDegrees,DateUTC
12:00 AM,84.2,50.0,30,29.92,-9999.0,East,12.7,-,N/A,,Clear,100,2012-10-07 22:00:00
1:00 AM,84.2,51.8,33,29.92,-9999.0,ENE,10.4,-,N/A,,Clear,70,2012-10-07 23:00:00
2:00 AM,83,54,27,,6,ENE,8.1,,,,,70,2012-10-08 00:00:00
2:00 AM,84.2,53.6,35,29.89,-9999.0,ENE,8.1,-,N/A,,Clear,70,2012-10-08 00:00:00
3:00 AM,80.6,53.6,39,29.89,-9999.0,ENE,5.8,-,N/A,,Clear,60,2012-10-08 01:00:00
4:00 AM,78.8,55.4,44,29.89,-9999.0,NE,3.5,-,N/A,,Clear,40,2012-10-08 02:00:00
5:00 AM,77.0,53.6,44,29.89,-9999.0,ENE,6.9,-,N/A,,Clear,60,2012-10-08 03:00:00
6:00 AM,75.2,53.6,47,29.92,-9999.0,East,8.1,-,N/A,,Clear,90,2012-10-08 04:00:00
7:00 AM,75.2,55.4,50,29.95,-9999.0,ENE,3.5,-,N/A,,Clear,60,2012-10-08 05:00:00
8:00 AM,79,52,29,,6,North,8.1,,,,,10,2012-10-08 06:00:00
8:00 AM,78.8,51.8,39,29.98,-9999.0,North,8.1,-,N/A,,Clear,10,2012-10-08 06:00:00
9:00 AM,86.0,53.6,33,29.98,-9999.0,North,11.5,-,N/A,,Clear,10,2012-10-08 07:00:00
10:00 AM,89.6,53.6,29,29.98,-9999.0,North,10.4,-,N/A,,Clear,360,2012-10-08 08:00:00
11:00 AM,95.0,57.2,28,29.98,-9999.0,NNE,11.5,-,N/A,,Clear,20,2012-10-08 09:00:00
12:00 PM,98.6,57.2,25,29.95,-9999.0,NNE,12.7,-,N/A,,Clear,30,2012-10-08 10:00:00
1:00 PM,100.4,57.2,24,29.92,-9999.0,NNE,9.2,-,N/A,,Clear,30,2012-10-08 11:00:00
2:00 PM,100,56,15,,6,ENE,12.7,,,,Haze,60,2012-10-08 12:00:00
2:00 PM,100.4,57.2,24,29.89,-9999.0,ENE,12.7,-,N/A,,Clear,60,2012-10-08 12:00:00
3:00 PM,102.2,57.2,22,29.86,-9999.0,North,10.4,-,N/A,,Clear,360,2012-10-08 13:00:00
4:00 PM,102.2,59.0,24,29.83,-9999.0,North,6.9,-,N/A,,Clear,360,2012-10-08 14:00:00
6:00 PM,98.6,57.2,25,29.86,-9999.0,NW,6.9,-,N/A,,Clear,310,2012-10-08 16:00:00
7:00 PM,95.0,60.8,32,29.89,-9999.0,West,4.6,-,N/A,,Clear,270,2012-10-08 17:00:00
8:00 PM,90,61,28,,6,West,4.6,,,,,260,2012-10-08 18:00:00
8:00 PM,89.6,60.8,38,29.89,-9999.0,West,4.6,-,N/A,,Clear,260,2012-10-08 18:00:00
9:00 PM,86.0,60.8,43,29.92,-9999.0,Variable,1.2,-,N/A,,Clear,0,2012-10-08 19:00:00
10:00 PM,82.4,60.8,48,29.92,-9999.0,East,3.5,-,N/A,,Clear,90,2012-10-08 20:00:00
11:00 PM,82.4,57.2,42,29.95,-9999.0,ENE,4.6,-,N/A,,Clear,60,2012-10-08 21:00:00